| time (UTC) | temp F | wind direction | speed MPH | gust MPH | rain 1hr in | rain 24hr in | rain mn in | humidity % | barometer mb |
| 20260510160528 | 58 | 0 | 0.0 | 1.0 | 0.00 | 0.00 | 0.00 | 85 | 1016.0 |
| 20260510160041 | 58 | 0 | 0.0 | 0.0 | 0.00 | 0.00 | 0.00 | 86 | 1016.1 |
| 20260510155531 | 57 | 0 | 0.0 | 0.0 | 0.00 | 0.00 | 0.00 | 88 | 1016.1 |
| 20260510155027 | 56 | 0 | 0.0 | 0.0 | 0.00 | 0.00 | 0.00 | 90 | 1016.1 |
| 20260510154541 | 56 | 0 | 0.0 | 0.0 | 0.00 | 0.00 | 0.00 | 90 | 1016.1 |
| 20260510154028 | 55 | 0 | 0.0 | 3.0 | 0.00 | 0.00 | 0.00 | 90 | 1016.1 |
| 20260510153528 | 55 | 0 | 0.0 | 3.0 | 0.00 | 0.00 | 0.00 | 91 | 1016.1 |
| 20260510153041 | 54 | 0 | 1.0 | 3.0 | 0.00 | 0.00 | 0.00 | 91 | 1016.0 |
| 20260510152527 | 54 | 320 | 0.0 | 3.0 | 0.00 | 0.00 | 0.00 | 92 | 1016.0 |
| 20260510152028 | 54 | 299 | 0.0 | 3.0 | 0.00 | 0.00 | 0.00 | 92 | 1016.0 |
| 20260510151550 | 54 | 0 | 0.0 | 0.0 | 0.00 | 0.00 | 0.00 | 93 | 1015.9 |
| 20260510151027 | 53 | 0 | 0.0 | 0.0 | 0.00 | 0.00 | 0.00 | 93 | 1016.0 |
| 20260510150528 | 53 | 0 | 0.0 | 0.0 | 0.00 | 0.00 | 0.00 | 93 | 1016.0 |
| 20260510150053 | 53 | 0 | 0.0 | 0.0 | 0.00 | 0.00 | 0.00 | 93 | 1016.0 |
| 20260510145527 | 53 | 0 | 0.0 | 0.0 | 0.00 | 0.00 | 0.00 | 93 | 1016.0 |
| 20260510145029 | 53 | 0 | 0.0 | 0.0 | 0.00 | 0.00 | 0.00 | 94 | 1015.9 |
| 20260510144603 | 53 | 0 | 0.0 | 0.0 | 0.00 | 0.00 | 0.00 | 94 | 1015.9 |
| 20260510144029 | 52 | 0 | 0.0 | 0.0 | 0.00 | 0.00 | 0.00 | 94 | 1015.8 |
| 20260510143528 | 52 | 0 | 0.0 | 0.0 | 0.00 | 0.00 | 0.00 | 94 | 1015.8 |
| 20260510143042 | 52 | 0 | 0.0 | 0.0 | 0.00 | 0.00 | 0.00 | 94 | 1015.8 |
| 20260510142527 | 52 | 0 | 0.0 | 0.0 | 0.00 | 0.00 | 0.00 | 94 | 1015.8 |
| 20260510142027 | 52 | 0 | 0.0 | 0.0 | 0.00 | 0.00 | 0.00 | 94 | 1015.7 |
| 20260510141538 | 52 | 0 | 0.0 | 0.0 | 0.00 | 0.00 | 0.00 | 94 | 1015.7 |
| 20260510141028 | 52 | 0 | 0.0 | 0.0 | 0.00 | 0.00 | 0.00 | 94 | 1015.7 |
| 20260510140526 | 52 | 0 | 0.0 | 0.0 | 0.00 | 0.00 | 0.00 | 94 | 1015.6 |
| 20260510140039 | 51 | 0 | 0.0 | 0.0 | 0.00 | 0.00 | 0.00 | 94 | 1015.5 |
| 20260510135530 | 51 | 0 | 0.0 | 1.0 | 0.00 | 0.00 | 0.00 | 94 | 1015.5 |
| 20260510135028 | 51 | 0 | 0.0 | 1.0 | 0.00 | 0.00 | 0.00 | 94 | 1015.4 |
| 20260510134602 | 51 | 321 | 0.0 | 1.0 | 0.00 | 0.00 | 0.00 | 94 | 1015.3 |
| 20260510134029 | 51 | 0 | 0.0 | 0.0 | 0.00 | 0.00 | 0.00 | 94 | 1015.2 |
| 20260510133527 | 51 | 0 | 0.0 | 0.0 | 0.00 | 0.00 | 0.00 | 94 | 1015.1 |
| 20260510133045 | 51 | 0 | 0.0 | 0.0 | 0.00 | 0.00 | 0.00 | 94 | 1015.0 |
| 20260510132527 | 51 | 0 | 0.0 | 0.0 | 0.00 | 0.00 | 0.00 | 94 | 1015.1 |
| 20260510132028 | 51 | 0 | 0.0 | 0.0 | 0.00 | 0.00 | 0.00 | 94 | 1015.0 |
| 20260510131544 | 51 | 0 | 0.0 | 0.0 | 0.00 | 0.00 | 0.00 | 94 | 1015.0 |
| 20260510131027 | 51 | 0 | 0.0 | 0.0 | 0.00 | 0.00 | 0.00 | 94 | 1015.0 |
| 20260510130527 | 50 | 0 | 0.0 | 1.0 | 0.00 | 0.00 | 0.00 | 94 | 1015.0 |
| 20260510130043 | 50 | 0 | 0.0 | 1.0 | 0.00 | 0.00 | 0.00 | 94 | 1015.0 |
| 20260510125526 | 50 | 0 | 0.0 | 1.0 | 0.00 | 0.00 | 0.00 | 94 | 1015.0 |
| 20260510125031 | 51 | 0 | 0.0 | 2.0 | 0.00 | 0.00 | 0.00 | 94 | 1015.0 |
| 20260510124542 | 51 | 0 | 0.0 | 2.0 | 0.00 | 0.00 | 0.00 | 94 | 1014.8 |
| 20260510124028 | 51 | 307 | 1.0 | 2.0 | 0.00 | 0.00 | 0.00 | 94 | 1014.9 |
| 20260510123529 | 50 | 0 | 0.0 | 0.0 | 0.00 | 0.00 | 0.00 | 94 | 1015.0 |
| 20260510123044 | 50 | 0 | 0.0 | 0.0 | 0.00 | 0.00 | 0.00 | 93 | 1015.0 |
| 20260510122526 | 50 | 0 | 0.0 | 0.0 | 0.00 | 0.00 | 0.00 | 93 | 1015.0 |
| 20260510122028 | 50 | 0 | 0.0 | 0.0 | 0.00 | 0.00 | 0.00 | 93 | 1015.0 |
| 20260510121542 | 50 | 0 | 0.0 | 0.0 | 0.00 | 0.00 | 0.00 | 93 | 1015.0 |
| 20260510121028 | 50 | 0 | 0.0 | 0.0 | 0.00 | 0.00 | 0.00 | 93 | 1014.9 |
| 20260510120531 | 51 | 0 | 0.0 | 0.0 | 0.00 | 0.00 | 0.00 | 93 | 1014.8 |
| 20260510120041 | 51 | 0 | 0.0 | 0.0 | 0.00 | 0.00 | 0.00 | 93 | 1014.9 |
| 20260510115527 | 51 | 0 | 0.0 | 0.0 | 0.00 | 0.00 | 0.00 | 93 | 1014.8 |
| 20260510115029 | 51 | 0 | 0.0 | 0.0 | 0.00 | 0.00 | 0.00 | 93 | 1015.0 |
| 20260510114539 | 50 | 0 | 0.0 | 0.0 | 0.00 | 0.00 | 0.00 | 93 | 1014.9 |
| 20260510114026 | 50 | 0 | 0.0 | 0.0 | 0.00 | 0.00 | 0.00 | 93 | 1014.9 |
| 20260510113529 | 50 | 0 | 0.0 | 0.0 | 0.00 | 0.00 | 0.00 | 92 | 1014.9 |
| 20260510113037 | 50 | 0 | 0.0 | 0.0 | 0.00 | 0.00 | 0.00 | 92 | 1014.9 |
| 20260510112528 | 50 | 0 | 0.0 | 0.0 | 0.00 | 0.00 | 0.00 | 91 | 1014.9 |
| 20260510112028 | 50 | 0 | 0.0 | 0.0 | 0.00 | 0.00 | 0.00 | 91 | 1015.0 |
| 20260510111554 | 51 | 0 | 0.0 | 0.0 | 0.00 | 0.00 | 0.00 | 91 | 1014.9 |
| 20260510111027 | 51 | 0 | 0.0 | 0.0 | 0.00 | 0.00 | 0.00 | 91 | 1014.8 |
| 20260510110526 | 51 | 0 | 0.0 | 0.0 | 0.00 | 0.00 | 0.00 | 91 | 1015.0 |
| 20260510110044 | 51 | 0 | 0.0 | 0.0 | 0.00 | 0.00 | 0.00 | 92 | 1015.0 |
| 20260510105527 | 51 | 0 | 0.0 | 0.0 | 0.00 | 0.00 | 0.00 | 91 | 1015.0 |
| 20260510105028 | 51 | 0 | 0.0 | 0.0 | 0.00 | 0.00 | 0.00 | 91 | 1014.8 |
| 20260510104546 | 51 | 0 | 0.0 | 0.0 | 0.00 | 0.00 | 0.00 | 90 | 1014.8 |
| 20260510104027 | 51 | 0 | 0.0 | 0.0 | 0.00 | 0.00 | 0.00 | 90 | 1014.7 |
| 20260510103529 | 51 | 0 | 0.0 | 0.0 | 0.00 | 0.00 | 0.00 | 89 | 1014.8 |
| 20260510103044 | 51 | 0 | 0.0 | 0.0 | 0.00 | 0.00 | 0.00 | 88 | 1014.8 |
| 20260510102527 | 52 | 0 | 0.0 | 0.0 | 0.00 | 0.00 | 0.00 | 88 | 1014.7 |
| 20260510102026 | 52 | 0 | 0.0 | 0.0 | 0.00 | 0.00 | 0.00 | 89 | 1014.7 |
| 20260510101535 | 52 | 0 | 0.0 | 0.0 | 0.00 | 0.00 | 0.00 | 88 | 1014.7 |
| 20260510101027 | 52 | 0 | 0.0 | 0.0 | 0.00 | 0.00 | 0.00 | 88 | 1014.7 |
| 20260510100530 | 52 | 0 | 0.0 | 0.0 | 0.00 | 0.00 | 0.00 | 87 | 1014.7 |
| 20260510100044 | 53 | 0 | 0.0 | 0.0 | 0.00 | 0.00 | 0.00 | 87 | 1014.7 |
| 20260510095528 | 53 | 0 | 0.0 | 0.0 | 0.00 | 0.00 | 0.00 | 86 | 1014.7 |
| 20260510095028 | 53 | 0 | 0.0 | 0.0 | 0.00 | 0.00 | 0.00 | 87 | 1014.6 |
| 20260510094543 | 53 | 0 | 0.0 | 0.0 | 0.00 | 0.00 | 0.00 | 86 | 1014.6 |
| 20260510094027 | 54 | 0 | 0.0 | 0.0 | 0.00 | 0.00 | 0.00 | 86 | 1014.5 |
| 20260510093527 | 54 | 0 | 0.0 | 0.0 | 0.00 | 0.00 | 0.00 | 85 | 1014.6 |
| 20260510093042 | 54 | 0 | 0.0 | 0.0 | 0.00 | 0.00 | 0.00 | 85 | 1014.6 |
| 20260510092527 | 54 | 0 | 0.0 | 0.0 | 0.00 | 0.00 | 0.00 | 84 | 1014.5 |
| 20260510092028 | 55 | 0 | 0.0 | 0.0 | 0.00 | 0.00 | 0.00 | 84 | 1014.5 |
| 20260510091538 | 55 | 0 | 0.0 | 0.0 | 0.00 | 0.00 | 0.00 | 84 | 1014.5 |
| 20260510091028 | 55 | 0 | 0.0 | 0.0 | 0.00 | 0.00 | 0.00 | 84 | 1014.5 |
| 20260510090527 | 55 | 0 | 0.0 | 0.0 | 0.00 | 0.00 | 0.00 | 83 | 1014.5 |
| 20260510090037 | 55 | 0 | 0.0 | 0.0 | 0.00 | 0.00 | 0.00 | 82 | 1014.4 |
| 20260510085528 | 56 | 0 | 0.0 | 0.0 | 0.00 | 0.00 | 0.00 | 82 | 1014.4 |
| 20260510085028 | 56 | 0 | 0.0 | 0.0 | 0.00 | 0.00 | 0.00 | 82 | 1014.5 |
| 20260510084544 | 56 | 0 | 0.0 | 0.0 | 0.00 | 0.00 | 0.00 | 82 | 1014.4 |
| 20260510084028 | 56 | 0 | 0.0 | 0.0 | 0.00 | 0.00 | 0.00 | 82 | 1014.5 |
| 20260510083532 | 56 | 0 | 0.0 | 0.0 | 0.00 | 0.00 | 0.00 | 81 | 1014.4 |
| 20260510083042 | 57 | 0 | 0.0 | 0.0 | 0.00 | 0.00 | 0.00 | 81 | 1014.5 |
| 20260510082527 | 57 | 0 | 0.0 | 0.0 | 0.00 | 0.00 | 0.00 | 80 | 1014.5 |
| 20260510082027 | 57 | 0 | 0.0 | 0.0 | 0.00 | 0.00 | 0.00 | 80 | 1014.5 |
| 20260510081548 | 57 | 0 | 0.0 | 0.0 | 0.00 | 0.00 | 0.00 | 79 | 1014.6 |
| 20260510081028 | 57 | 0 | 0.0 | 0.0 | 0.00 | 0.00 | 0.00 | 78 | 1014.6 |
| 20260510080530 | 58 | 0 | 0.0 | 1.0 | 0.00 | 0.00 | 0.00 | 78 | 1014.6 |
| 20260510080037 | 58 | 0 | 0.0 | 1.0 | 0.00 | 0.00 | 0.00 | 77 | 1014.6 |
| 20260510075527 | 58 | 278 | 0.0 | 1.0 | 0.00 | 0.00 | 0.00 | 77 | 1014.7 |
| 20260510075027 | 58 | 0 | 0.0 | 1.0 | 0.00 | 0.00 | 0.00 | 77 | 1014.7 |
| 20260510074602 | 58 | 274 | 0.0 | 1.0 | 0.00 | 0.00 | 0.00 | 77 | 1014.6 |
| 20260510074026 | 58 | 319 | 0.0 | 1.0 | 0.00 | 0.00 | 0.00 | 77 | 1014.6 |
| 20260510073530 | 59 | 0 | 0.0 | 1.0 | 0.00 | 0.00 | 0.00 | 76 | 1014.5 |
| 20260510073045 | 59 | 0 | 0.0 | 1.0 | 0.00 | 0.00 | 0.00 | 75 | 1014.5 |
| 20260510072527 | 59 | 0 | 0.0 | 3.0 | 0.00 | 0.00 | 0.00 | 75 | 1014.5 |
| 20260510072055 | 59 | 327 | 0.0 | 3.0 | 0.00 | 0.00 | 0.00 | 75 | 1014.5 |
| 20260510071543 | 59 | 320 | 0.0 | 3.0 | 0.00 | 0.00 | 0.00 | 75 | 1014.6 |
| 20260510071027 | 59 | 0 | 0.0 | 0.0 | 0.00 | 0.00 | 0.00 | 74 | 1014.6 |
| 20260510070532 | 59 | 0 | 0.0 | 0.0 | 0.00 | 0.00 | 0.00 | 74 | 1014.5 |
| 20260510070042 | 60 | 0 | 0.0 | 0.0 | 0.00 | 0.00 | 0.00 | 74 | 1014.6 |
| 20260510065532 | 59 | 0 | 0.0 | 0.0 | 0.00 | 0.00 | 0.00 | 74 | 1014.4 |
| 20260510065030 | 59 | 0 | 0.0 | 0.0 | 0.00 | 0.00 | 0.00 | 72 | 1014.4 |
| 20260510064536 | 60 | 0 | 0.0 | 0.0 | 0.00 | 0.00 | 0.00 | 71 | 1014.3 |
| 20260510064028 | 60 | 0 | 0.0 | 0.0 | 0.00 | 0.00 | 0.00 | 70 | 1014.4 |
| 20260510063528 | 61 | 0 | 0.0 | 0.0 | 0.00 | 0.00 | 0.00 | 69 | 1014.4 |
| 20260510063044 | 61 | 0 | 0.0 | 0.0 | 0.00 | 0.00 | 0.00 | 69 | 1014.3 |
| 20260510062529 | 62 | 0 | 0.0 | 0.0 | 0.00 | 0.00 | 0.00 | 69 | 1014.3 |
| 20260510062028 | 62 | 0 | 0.0 | 0.0 | 0.00 | 0.00 | 0.00 | 68 | 1014.2 |
| 20260510061545 | 62 | 0 | 0.0 | 0.0 | 0.00 | 0.00 | 0.00 | 68 | 1014.2 |
| 20260510061029 | 62 | 0 | 0.0 | 0.0 | 0.00 | 0.00 | 0.00 | 68 | 1014.2 |
| 20260510060529 | 62 | 0 | 0.0 | 0.0 | 0.00 | 0.00 | 0.00 | 67 | 1014.2 |
| 20260510060050 | 63 | 0 | 0.0 | 0.0 | 0.00 | 0.00 | 0.00 | 66 | 1014.1 |
| 20260510055528 | 63 | 0 | 0.0 | 0.0 | 0.00 | 0.00 | 0.00 | 66 | 1014.2 |
| 20260510055027 | 63 | 0 | 0.0 | 0.0 | 0.00 | 0.00 | 0.00 | 66 | 1014.1 |
| 20260510054541 | 63 | 0 | 0.0 | 0.0 | 0.00 | 0.00 | 0.00 | 66 | 1014.0 |
| 20260510054027 | 63 | 0 | 0.0 | 1.0 | 0.00 | 0.00 | 0.00 | 66 | 1014.0 |
| 20260510053528 | 63 | 0 | 0.0 | 1.0 | 0.00 | 0.00 | 0.00 | 65 | 1013.9 |
| 20260510053042 | 63 | 0 | 0.0 | 0.0 | 0.00 | 0.00 | 0.00 | 65 | 1013.9 |
| 20260510052528 | 63 | 0 | 0.0 | 0.0 | 0.00 | 0.00 | 0.00 | 65 | 1013.9 |
| 20260510052028 | 64 | 0 | 0.0 | 0.0 | 0.00 | 0.00 | 0.00 | 65 | 1014.0 |
| 20260510051542 | 64 | 0 | 0.0 | 0.0 | 0.00 | 0.00 | 0.00 | 65 | 1014.0 |
| 20260510051028 | 63 | 0 | 0.0 | 0.0 | 0.00 | 0.00 | 0.00 | 65 | 1014.0 |
| 20260510050527 | 64 | 0 | 0.0 | 0.0 | 0.00 | 0.00 | 0.00 | 63 | 1014.0 |
| 20260510050037 | 64 | 0 | 0.0 | 0.0 | 0.00 | 0.00 | 0.00 | 64 | 1014.0 |
| 20260510045531 | 64 | 0 | 0.0 | 0.0 | 0.00 | 0.00 | 0.00 | 64 | 1014.0 |
| 20260510045028 | 64 | 0 | 0.0 | 0.0 | 0.00 | 0.00 | 0.00 | 63 | 1013.9 |
| 20260510044543 | 65 | 0 | 0.0 | 0.0 | 0.00 | 0.00 | 0.00 | 64 | 1013.9 |
| 20260510044030 | 65 | 0 | 0.0 | 0.0 | 0.00 | 0.00 | 0.00 | 64 | 1013.8 |
| 20260510043528 | 65 | 0 | 0.0 | 0.0 | 0.00 | 0.00 | 0.00 | 64 | 1013.8 |
| 20260510043102 | 65 | 0 | 0.0 | 0.0 | 0.00 | 0.00 | 0.00 | 61 | 1013.6 |
| 20260510042528 | 65 | 0 | 0.0 | 0.0 | 0.00 | 0.00 | 0.00 | 61 | 1013.6 |
| 20260510042030 | 65 | 0 | 0.0 | 0.0 | 0.00 | 0.00 | 0.00 | 60 | 1013.5 |
| 20260510041536 | 66 | 0 | 0.0 | 0.0 | 0.00 | 0.00 | 0.00 | 58 | 1013.4 |
| 20260510041028 | 66 | 0 | 0.0 | 0.0 | 0.00 | 0.00 | 0.00 | 57 | 1013.6 |
| 20260510040528 | 66 | 0 | 0.0 | 1.0 | 0.00 | 0.00 | 0.00 | 57 | 1013.5 |
| 20260510040041 | 66 | 0 | 0.0 | 2.0 | 0.00 | 0.00 | 0.00 | 56 | 1013.3 |
| 20260510035528 | 66 | 129 | 0.0 | 2.0 | 0.00 | 0.00 | 0.00 | 56 | 1013.3 |
| 20260510035032 | 66 | 0 | 0.0 | 0.0 | 0.00 | 0.00 | 0.00 | 57 | 1013.3 |
| 20260510034545 | 66 | 0 | 0.0 | 0.0 | 0.00 | 0.00 | 0.00 | 56 | 1013.1 |
| 20260510034028 | 66 | 0 | 0.0 | 0.0 | 0.00 | 0.00 | 0.00 | 56 | 1013.0 |
| 20260510033527 | 66 | 0 | 0.0 | 0.0 | 0.00 | 0.00 | 0.00 | 55 | 1013.0 |
| 20260510033047 | 67 | 0 | 0.0 | 0.0 | 0.00 | 0.00 | 0.00 | 55 | 1013.0 |
| 20260510032528 | 68 | 0 | 0.0 | 0.0 | 0.00 | 0.00 | 0.00 | 54 | 1013.0 |
| 20260510032027 | 69 | 0 | 0.0 | 0.0 | 0.00 | 0.00 | 0.00 | 55 | 1012.9 |
| 20260510031613 | 69 | 0 | 0.0 | 0.0 | 0.00 | 0.00 | 0.00 | 53 | 1012.8 |
| 20260510031028 | 69 | 0 | 0.0 | 0.0 | 0.00 | 0.00 | 0.00 | 51 | 1012.7 |
| 20260510030531 | 70 | 0 | 0.0 | 0.0 | 0.00 | 0.00 | 0.00 | 50 | 1012.5 |
| 20260510030041 | 71 | 0 | 0.0 | 0.0 | 0.00 | 0.00 | 0.00 | 50 | 1012.6 |
| 20260510025528 | 71 | 0 | 0.0 | 0.0 | 0.00 | 0.00 | 0.00 | 50 | 1012.5 |
| 20260510025030 | 72 | 0 | 0.0 | 0.0 | 0.00 | 0.00 | 0.00 | 47 | 1012.4 |
| 20260510024540 | 73 | 0 | 0.0 | 0.0 | 0.00 | 0.00 | 0.00 | 47 | 1012.4 |
| 20260510024028 | 74 | 0 | 0.0 | 0.0 | 0.00 | 0.00 | 0.00 | 44 | 1012.3 |
| 20260510023527 | 74 | 0 | 0.0 | 0.0 | 0.00 | 0.00 | 0.00 | 43 | 1012.3 |
| 20260510023051 | 75 | 0 | 0.0 | 0.0 | 0.00 | 0.00 | 0.00 | 45 | 1012.2 |
| 20260510022529 | 76 | 0 | 0.0 | 0.0 | 0.00 | 0.00 | 0.00 | 41 | 1012.2 |
| 20260510022031 | 76 | 0 | 0.0 | 0.0 | 0.00 | 0.00 | 0.00 | 40 | 1012.2 |
| 20260510021545 | 77 | 0 | 0.0 | 0.0 | 0.00 | 0.00 | 0.00 | 40 | 1012.1 |
| 20260510021027 | 77 | 0 | 0.0 | 0.0 | 0.00 | 0.00 | 0.00 | 38 | 1012.0 |
| 20260510020527 | 78 | 0 | 0.0 | 0.0 | 0.00 | 0.00 | 0.00 | 38 | 1012.1 |
| 20260510020044 | 79 | 0 | 0.0 | 0.0 | 0.00 | 0.00 | 0.00 | 38 | 1012.0 |
| 20260510015528 | 79 | 0 | 0.0 | 0.0 | 0.00 | 0.00 | 0.00 | 35 | 1012.0 |
| 20260510015027 | 80 | 0 | 0.0 | 1.0 | 0.00 | 0.00 | 0.00 | 37 | 1012.0 |
| 20260510014541 | 80 | 0 | 0.0 | 1.0 | 0.00 | 0.00 | 0.00 | 33 | 1011.9 |
| 20260510014027 | 81 | 0 | 0.0 | 1.0 | 0.00 | 0.00 | 0.00 | 33 | 1011.9 |
| 20260510013530 | 81 | 0 | 0.0 | 2.0 | 0.00 | 0.00 | 0.00 | 34 | 1011.9 |
| 20260510013041 | 82 | 0 | 0.0 | 2.0 | 0.00 | 0.00 | 0.00 | 32 | 1011.9 |
| 20260510012528 | 83 | 71 | 0.0 | 2.0 | 0.00 | 0.00 | 0.00 | 31 | 1011.8 |
| 20260510012030 | 84 | 0 | 0.0 | 2.0 | 0.00 | 0.00 | 0.00 | 31 | 1011.8 |
| 20260510011555 | 85 | 124 | 0.0 | 3.0 | 0.00 | 0.00 | 0.00 | 30 | 1011.8 |
| 20260510011030 | 87 | 176 | 0.0 | 3.0 | 0.00 | 0.00 | 0.00 | 28 | 1011.8 |
| 20260510010527 | 88 | 205 | 1.0 | 3.0 | 0.00 | 0.00 | 0.00 | 27 | 1011.7 |
| 20260510010055 | 87 | 0 | 0.0 | 4.0 | 0.00 | 0.00 | 0.00 | 29 | 1011.7 |
| 20260510005529 | 86 | 152 | 2.0 | 4.0 | 0.00 | 0.00 | 0.00 | 29 | 1011.7 |
| 20260510005027 | 87 | 223 | 1.0 | 4.0 | 0.00 | 0.00 | 0.00 | 28 | 1011.7 |
| 20260510004541 | 88 | 214 | 0.0 | 2.0 | 0.00 | 0.00 | 0.00 | 28 | 1011.7 |
| 20260510004032 | 87 | 228 | 1.0 | 4.0 | 0.00 | 0.00 | 0.00 | 29 | 1011.6 |
| 20260510003529 | 87 | 240 | 1.0 | 4.0 | 0.00 | 0.00 | 0.00 | 31 | 1011.7 |
| 20260510003043 | 88 | 168 | 1.0 | 7.0 | 0.00 | 0.00 | 0.00 | 30 | 1011.7 |
| 20260510002528 | 88 | 136 | 1.0 | 7.0 | 0.00 | 0.00 | 0.00 | 30 | 1011.7 |
| 20260510002031 | 88 | 131 | 0.0 | 3.0 | 0.00 | 0.00 | 0.00 | 31 | 1011.7 |
| 20260510001539 | 88 | 113 | 1.0 | 4.0 | 0.00 | 0.00 | 0.00 | 32 | 1011.7 |
| 20260510001028 | 87 | 103 | 1.0 | 6.0 | 0.00 | 0.00 | 0.00 | 31 | 1011.8 |
| 20260510000528 | 87 | 145 | 1.0 | 6.0 | 0.00 | 0.00 | 0.00 | 31 | 1011.7 |
| 20260510000048 | 87 | 128 | 1.0 | 6.0 | 0.00 | 0.00 | 0.00 | 31 | 1011.7 |
| 20260509235530 | 88 | 270 | 2.0 | 7.0 | 0.00 | 0.00 | 0.00 | 29 | 1011.7 |
| 20260509235027 | 89 | 231 | 2.0 | 7.0 | 0.00 | 0.00 | 0.00 | 30 | 1011.8 |
| 20260509234541 | 89 | 210 | 1.0 | 6.0 | 0.00 | 0.00 | 0.00 | 29 | 1011.8 |
| 20260509234031 | 88 | 104 | 2.0 | 6.0 | 0.00 | 0.00 | 0.00 | 30 | 1011.8 |
| 20260509233527 | 89 | 131 | 2.0 | 5.0 | 0.00 | 0.00 | 0.00 | 30 | 1011.9 |
| 20260509233041 | 88 | 239 | 2.0 | 7.0 | 0.00 | 0.00 | 0.00 | 30 | 1011.8 |
| 20260509232529 | 89 | 96 | 1.0 | 7.0 | 0.00 | 0.00 | 0.00 | 32 | 1011.9 |
| 20260509232029 | 89 | 169 | 2.0 | 6.0 | 0.00 | 0.00 | 0.00 | 31 | 1011.9 |
| 20260509231550 | 89 | 101 | 1.0 | 7.0 | 0.00 | 0.00 | 0.00 | 32 | 1012.0 |
| 20260509231027 | 89 | 134 | 1.0 | 7.0 | 0.00 | 0.00 | 0.00 | 33 | 1012.1 |
| 20260509230527 | 90 | 188 | 2.0 | 7.0 | 0.00 | 0.00 | 0.00 | 32 | 1012.1 |
| 20260509230040 | 90 | 233 | 1.0 | 5.0 | 0.00 | 0.00 | 0.00 | 34 | 1012.1 |
| 20260509225528 | 90 | 233 | 1.0 | 5.0 | 0.00 | 0.00 | 0.00 | 33 | 1012.1 |
| 20260509225028 | 89 | 106 | 1.0 | 7.0 | 0.00 | 0.00 | 0.00 | 36 | 1012.1 |
| 20260509224542 | 90 | 252 | 2.0 | 7.0 | 0.00 | 0.00 | 0.00 | 33 | 1012.1 |
| 20260509224028 | 90 | 249 | 2.0 | 6.0 | 0.00 | 0.00 | 0.00 | 32 | 1012.1 |
| 20260509223529 | 90 | 109 | 2.0 | 6.0 | 0.00 | 0.00 | 0.00 | 32 | 1012.1 |
| 20260509223042 | 90 | 60 | 2.0 | 6.0 | 0.00 | 0.00 | 0.00 | 32 | 1012.2 |
| 20260509222531 | 91 | 240 | 2.0 | 8.0 | 0.00 | 0.00 | 0.00 | 31 | 1012.4 |
| 20260509222029 | 91 | 266 | 3.0 | 8.0 | 0.00 | 0.00 | 0.00 | 32 | 1012.5 |
| 20260509221541 | 92 | 259 | 3.0 | 7.0 | 0.00 | 0.00 | 0.00 | 30 | 1012.4 |
| 20260509221027 | 93 | 137 | 1.0 | 6.0 | 0.00 | 0.00 | 0.00 | 27 | 1012.5 |
| 20260509220527 | 92 | 245 | 1.0 | 6.0 | 0.00 | 0.00 | 0.00 | 24 | 1012.4 |
| 20260509220046 | 92 | 283 | 1.0 | 3.0 | 0.00 | 0.00 | 0.00 | 24 | 1012.5 |
| 20260509215530 | 91 | 89 | 1.0 | 3.0 | 0.00 | 0.00 | 0.00 | 22 | 1012.5 |
| 20260509215032 | 91 | 37 | 1.0 | 6.0 | 0.00 | 0.00 | 0.00 | 22 | 1012.6 |
| 20260509214543 | 90 | 236 | 2.0 | 6.0 | 0.00 | 0.00 | 0.00 | 22 | 1012.7 |
| 20260509214027 | 90 | 314 | 2.0 | 4.0 | 0.00 | 0.00 | 0.00 | 21 | 1012.7 |
| 20260509213528 | 90 | 304 | 2.0 | 5.0 | 0.00 | 0.00 | 0.00 | 18 | 1012.8 |
| 20260509213058 | 90 | 191 | 1.0 | 5.0 | 0.00 | 0.00 | 0.00 | 17 | 1012.8 |
| 20260509212527 | 90 | 314 | 2.0 | 4.0 | 0.00 | 0.00 | 0.00 | 20 | 1012.9 |
| 20260509212029 | 90 | 297 | 1.0 | 4.0 | 0.00 | 0.00 | 0.00 | 20 | 1012.9 |
| 20260509211604 | 91 | 316 | 1.0 | 7.0 | 0.00 | 0.00 | 0.00 | 23 | 1013.1 |
| 20260509211027 | 90 | 155 | 2.0 | 7.0 | 0.00 | 0.00 | 0.00 | 25 | 1013.1 |
| 20260509210527 | 89 | 293 | 0.0 | 3.0 | 0.00 | 0.00 | 0.00 | 25 | 1013.2 |
| 20260509210037 | 88 | 236 | 1.0 | 5.0 | 0.00 | 0.00 | 0.00 | 23 | 1013.2 |
| 20260509205527 | 89 | 155 | 1.0 | 5.0 | 0.00 | 0.00 | 0.00 | 23 | 1013.3 |
| 20260509205027 | 90 | 328 | 2.0 | 4.0 | 0.00 | 0.00 | 0.00 | 24 | 1013.4 |
| 20260509204557 | 90 | 134 | 0.0 | 3.0 | 0.00 | 0.00 | 0.00 | 24 | 1013.4 |
| 20260509204032 | 89 | 205 | 0.0 | 3.0 | 0.00 | 0.00 | 0.00 | 25 | 1013.5 |
| 20260509203527 | 88 | 240 | 1.0 | 3.0 | 0.00 | 0.00 | 0.00 | 27 | 1013.5 |
| 20260509203052 | 87 | 0 | 0.0 | 3.0 | 0.00 | 0.00 | 0.00 | 27 | 1013.6 |
| 20260509202527 | 87 | 41 | 1.0 | 3.0 | 0.00 | 0.00 | 0.00 | 29 | 1013.7 |
| 20260509202028 | 86 | 80 | 0.0 | 4.0 | 0.00 | 0.00 | 0.00 | 31 | 1013.7 |
| 20260509201544 | 86 | 326 | 1.0 | 4.0 | 0.00 | 0.00 | 0.00 | 29 | 1013.7 |
| 20260509201028 | 86 | 327 | 2.0 | 5.0 | 0.00 | 0.00 | 0.00 | 31 | 1013.8 |
| 20260509200527 | 86 | 242 | 1.0 | 5.0 | 0.00 | 0.00 | 0.00 | 30 | 1013.9 |
| 20260509200042 | 86 | 0 | 0.0 | 5.0 | 0.00 | 0.00 | 0.00 | 33 | 1014.0 |
| 20260509195528 | 85 | 315 | 0.0 | 5.0 | 0.00 | 0.00 | 0.00 | 34 | 1014.0 |
| 20260509195030 | 84 | 354 | 1.0 | 5.0 | 0.00 | 0.00 | 0.00 | 36 | 1014.1 |
| 20260509194546 | 84 | 277 | 0.0 | 4.0 | 0.00 | 0.00 | 0.00 | 38 | 1014.2 |
| 20260509194028 | 83 | 313 | 0.0 | 4.0 | 0.00 | 0.00 | 0.00 | 38 | 1014.4 |
| 20260509193530 | 83 | 226 | 1.0 | 5.0 | 0.00 | 0.00 | 0.00 | 37 | 1014.4 |
| 20260509193045 | 82 | 0 | 1.0 | 5.0 | 0.00 | 0.00 | 0.00 | 41 | 1014.4 |
| 20260509192527 | 82 | 330 | 2.0 | 5.0 | 0.00 | 0.00 | 0.00 | 39 | 1014.5 |
| 20260509192027 | 82 | 309 | 0.0 | 3.0 | 0.00 | 0.00 | 0.00 | 41 | 1014.6 |
| 20260509191544 | 82 | 0 | 0.0 | 3.0 | 0.00 | 0.00 | 0.00 | 41 | 1014.6 |
| 20260509191030 | 81 | 233 | 1.0 | 4.0 | 0.00 | 0.00 | 0.00 | 43 | 1014.7 |
| 20260509190527 | 80 | 226 | 1.0 | 4.0 | 0.00 | 0.00 | 0.00 | 45 | 1014.9 |
| 20260509190048 | 79 | 0 | 0.0 | 5.0 | 0.00 | 0.00 | 0.00 | 44 | 1015.0 |
| 20260509185529 | 78 | 315 | 2.0 | 5.0 | 0.00 | 0.00 | 0.00 | 44 | 1015.1 |
| 20260509185029 | 78 | 0 | 1.0 | 4.0 | 0.00 | 0.00 | 0.00 | 45 | 1015.1 |
| 20260509184538 | 78 | 85 | 1.0 | 3.0 | 0.00 | 0.00 | 0.00 | 45 | 1015.2 |
| 20260509184027 | 77 | 238 | 0.0 | 2.0 | 0.00 | 0.00 | 0.00 | 48 | 1015.3 |
| 20260509183533 | 76 | 0 | 0.0 | 2.0 | 0.00 | 0.00 | 0.00 | 48 | 1015.3 |
| 20260509183044 | 75 | 228 | 0.0 | 3.0 | 0.00 | 0.00 | 0.00 | 53 | 1015.3 |
| 20260509182527 | 74 | 0 | 0.0 | 3.0 | 0.00 | 0.00 | 0.00 | 51 | 1015.4 |
| 20260509182027 | 73 | 318 | 1.0 | 3.0 | 0.00 | 0.00 | 0.00 | 54 | 1015.4 |
| 20260509181545 | 72 | 0 | 0.0 | 3.0 | 0.00 | 0.00 | 0.00 | 57 | 1015.5 |
| 20260509181028 | 71 | 246 | 1.0 | 3.0 | 0.00 | 0.00 | 0.00 | 57 | 1015.5 |
| 20260509180528 | 70 | 300 | 1.0 | 3.0 | 0.00 | 0.00 | 0.00 | 57 | 1015.6 |
| 20260509180042 | 70 | 0 | 0.0 | 4.0 | 0.00 | 0.00 | 0.00 | 59 | 1015.6 |
| 20260509175527 | 69 | 307 | 0.0 | 4.0 | 0.00 | 0.00 | 0.00 | 61 | 1015.7 |
| 20260509175027 | 69 | 315 | 1.0 | 3.0 | 0.00 | 0.00 | 0.00 | 60 | 1015.8 |
| 20260509174547 | 68 | 295 | 1.0 | 2.0 | 0.00 | 0.00 | 0.00 | 62 | 1015.9 |
| 20260509174030 | 67 | 347 | 1.0 | 4.0 | 0.00 | 0.00 | 0.00 | 65 | 1015.9 |
| 20260509173527 | 67 | 231 | 1.0 | 4.0 | 0.00 | 0.00 | 0.00 | 67 | 1015.9 |
| 20260509173041 | 66 | 0 | 1.0 | 4.0 | 0.00 | 0.00 | 0.00 | 66 | 1016.0 |
| 20260509172530 | 66 | 250 | 1.0 | 2.0 | 0.00 | 0.00 | 0.00 | 67 | 1016.0 |
| 20260509172030 | 65 | 232 | 0.0 | 2.0 | 0.00 | 0.00 | 0.00 | 67 | 1016.1 |
| 20260509171536 | 65 | 187 | 0.0 | 2.0 | 0.00 | 0.00 | 0.00 | 69 | 1016.0 |
| 20260509171027 | 64 | 188 | 0.0 | 2.0 | 0.00 | 0.00 | 0.00 | 71 | 1016.1 |
| 20260509170528 | 63 | 187 | 0.0 | 2.0 | 0.00 | 0.00 | 0.00 | 73 | 1016.1 |
| 20260509170045 | 63 | 186 | 0.0 | 2.0 | 0.00 | 0.00 | 0.00 | 74 | 1016.2 |
| 20260509165527 | 61 | 188 | 0.0 | 3.0 | 0.00 | 0.00 | 0.00 | 76 | 1016.2 |
| 20260509165028 | 61 | 0 | 1.0 | 3.0 | 0.00 | 0.00 | 0.00 | 76 | 1016.2 |
| 20260509164544 | 61 | 188 | 0.0 | 2.0 | 0.00 | 0.00 | 0.00 | 78 | 1016.3 |
| 20260509164027 | 60 | 0 | 0.0 | 2.0 | 0.00 | 0.00 | 0.00 | 80 | 1016.4 |
| 20260509163527 | 58 | 0 | 0.0 | 4.0 | 0.00 | 0.00 | 0.00 | 82 | 1016.4 |
| 20260509163054 | 58 | 0 | 0.0 | 4.0 | 0.00 | 0.00 | 0.00 | 82 | 1016.5 |
| 20260509162527 | 57 | 188 | 1.0 | 4.0 | 0.00 | 0.00 | 0.00 | 83 | 1016.5 |
| 20260509162028 | 57 | 0 | 0.0 | 2.0 | 0.00 | 0.00 | 0.00 | 82 | 1016.5 |
| 20260509161542 | 58 | 191 | 0.0 | 3.0 | 0.00 | 0.00 | 0.00 | 84 | 1016.6 |
| 20260509161031 | 56 | 0 | 0.0 | 4.0 | 0.00 | 0.00 | 0.00 | 86 | 1016.6 |